RH
73 80 82 84 80 79 90 72 70 63 67 68 68 65 62 66 64 57 48 49 48 48 51 53 54 55 56 57 56 54 55 55 53 52 51 53 55 57 52 50 55 55 57 72 85 79 75 60 55
74 68 73 79 77 71 72 67 67 64 59 59 58 62 62 61 55 52 52 49 46 46 49 50 52 53 52 55 57 58 57 56 54 52 51 58 61 60 56 50 54 54 57 71 75 74 66 54 56
67 65 70 76 72 68 63 63 73 64 62 56 57 54 52 54 53 52 49 49 46 45 47 48 50 52 53 53 55 56 58 56 51 53 51 56 63 63 59 51 52 53 60 70 71 66 62 58 58
72 76 74 74 66 60 60 54 59 63 72 59 50 51 49 52 50 49 50 48 45 45 46 46 48 50 53 54 58 56 57 55 52 49 52 55 57 61 57 54 56 56 60 63 65 61 56 58 62
79 73 75 78 70 64 67 63 59 54 48 53 43 48 48 51 53 54 52 48 46 45 45 45 48 49 51 56 58 59 58 56 52 49 51 52 59 58 57 59 62 63 60 62 65 62 63 64 66
74 75 84 79 71 68 59 65 70 61 56 49 54 52 50 50 55 56 52 49 48 43 45 45 48 47 47 54 57 59 57 56 54 52 52 50 52 56 67 69 64 65 61 61 62 64 64 65 63
65 70 78 81 69 75 70 66 72 59 56 52 48 50 52 52 54 54 51 51 48 42 43 44 45 46 45 51 54 57 58 57 57 58 54 49 49 50 56 64 66 69 65 63 61 61 60 61 64
55 67 71 68 76 72 66 61 61 61 64 61 47 51 44 44 49 55 58 57 53 48 43 42 42 43 44 46 52 54 57 59 66 62 63 56 59 51 52 57 66 69 64 62 62 65 66 62 68
56 66 71 69 64 69 69 62 58 65 62 51 40 36 40 44 47 52 59 68 67 58 52 46 41 40 42 43 49 52 54 59 66 65 64 68 71 65 54 54 59 63 64 64 67 69 69 68 70
53 65 62 57 56 55 61 51 50 59 58 42 38 40 44 47 47 49 53 61 66 58 55 49 42 40 40 43 44 51 53 59 66 64 64 77 82 77 73 70 59 61 64 65 67 70 72 75 77
47 62 58 61 57 51 56 56 53 50 55 49 41 41 44 49 54 54 57 55 58 60 55 47 42 40 39 42 43 50 52 57 64 64 63 79 90 78 77 76 79 59 63 67 70 71 73 78 79
53 49 51 54 49 51 64 58 60 50 47 54 42 41 44 44 47 49 53 54 56 54 53 47 42 40 39 44 47 47 57 57 63 66 68 75 73 77 76 75 71 62 66 74 77 81 83 80 86
53 53 49 52 62 50 57 50 51 55 53 52 41 46 50 51 48 50 52 56 55 55 57 51 48 47 41 44 48 47 50 53 59 67 72 70 74 74 73 73 64 70 78 83 82 84 86 93 92
35 51 37 43 56 52 55 56 48 53 54 49 43 46 54 52 48 46 53 55 54 59 55 54 53 51 42 47 52 49 55 57 59 65 73 74 69 71 72 70 72 76 78 83 83 90 89 97 96
30 32 36 39 53 56 55 62 53 50 54 53 46 41 47 52 52 46 47 56 54 55 60 59 57 52 49 48 56 56 58 58 60 61 66 72 71 70 71 74 75 76 83 83 88 91 92 94 95
27 28 39 40 45 55 49 52 55 49 52 48 49 41 41 45 48 49 55 61 61 60 65 67 64 58 55 51 51 55 59 63 63 63 62 64 65 69 70 72 76 79 80 83 85 89 94 97 95
29 39 36 45 44 51 51 41 47 48 49 46 48 47 45 46 48 49 50 54 56 63 72 79 74 63 57 58 58 51 56 64 68 68 68 67 66 65 63 63 74 79 83 85 88 91 93 92 92
34 40 42 43 45 49 45 40 47 43 48 46 47 50 44 48 50 52 50 48 52 59 67 70 69 57 55 58 57 51 50 55 57 61 69 71 74 73 70 65 62 70 79 82 84 88 92 90 88
34 36 37 37 41 43 42 38 45 41 46 47 44 51 41 46 53 53 49 44 48 56 63 64 63 60 57 52 50 50 48 49 53 56 61 67 72 74 73 73 73 75 83 85 86 88 90 90 91
27 31 33 35 34 40 43 37 42 42 44 44 44 41 40 47 50 57 44 43 41 45 55 61 60 63 65 63 55 53 59 52 51 55 60 60 66 71 69 69 70 74 80 84 82 82 83 86 89
25 26 31 30 29 34 40 42 39 43 42 45 44 42 43 46 51 49 45 36 39 40 41 42 44 48 55 64 66 63 61 64 58 54 62 64 67 73 77 74 74 77 78 80 82 80 82 84 87
17 21 25 24 26 32 34 37 32 37 38 41 44 46 45 48 50 48 35 33 36 36 36 37 38 40 44 48 55 57 58 60 69 72 71 63 69 75 77 78 76 79 79 81 81 83 80 83 87
12 15 20 22 23 27 31 33 28 34 34 40 45 42 48 45 48 38 26 24 27 29 30 33 35 41 45 47 49 52 55 61 61 62 61 63 69 74 75 80 80 82 82 81 82 83 84 84 85
11 11 16 20 24 25 26 35 34 35 34 39 44 38 40 43 47 29 23 27 29 30 29 28 30 39 42 44 47 49 50 54 60 64 70 74 74 75 76 78 80 80 79 83 85 85 88 88 89
11 12 14 19 23 22 28 34 35 34 35 37 40 42 36 41 38 28 24 26 30 32 31 30 28 31 40 42 43 47 46 46 52 62 68 77 78 78 77 79 82 82 84 83 85 88 90 90 90
11 11 14 14 16 19 26 29 30 30 28 32 34 38 37 41 37 28 25 28 29 28 28 29 31 30 36 42 43 44 48 47 49 52 65 77 69 69 77 81 84 82 83 85 84 89 88 91 89
13 14 12 14 14 17 19 25 28 28 31 32 30 36 33 48 43 32 34 43 38 27 25 26 32 29 31 37 43 42 45 49 50 52 59 61 63 68 78 81 88 89 85 80 86 87 88 87 90
15 14 14 13 13 15 19 25 25 22 25 28 35 35 42 53 52 40 38 43 38 29 23 26 29 27 29 35 38 41 44 46 51 57 60 61 65 71 75 79 82 81 80 79 81 84 85 86 88
16 15 14 14 15 15 16 18 21 18 20 26 33 33 41 49 50 40 35 34 35 30 25 24 26 27 28 32 34 37 42 42 45 50 53 55 58 67 71 79 72 68 65 63 69 71 74 77 82
16 16 15 15 15 16 16 13 12 13 19 25 27 29 33 38 45 42 38 38 33 27 23 22 24 27 27 28 30 31 37 40 43 45 51 54 57 63 64 68 65 63 57 60 66 70 73 77 79